Content
SEND FEEDBACK

Daily
Averages
Monthly
Summary
Palau

KOSHA, PALAU


Home > Oceania > Palau
Elevation: 10 feet     Latitude: 07 02N     Longitude: 134 16E

WEATHER
 
SELECT A DAY
Number of Records: 162,339;   Date Range: 7/1/96 - 7/23/14
 
SHARE

PRINT THIS DATA

[ ← Previous Day ]
WEATHER ALMANAC - FEBRUARY 13, 2013
[ Next Day → ]
[ °C ]   °F
Weather ElementAverageHighLow
Temperature82.1 °F86 °F (12:50 pm)80.6 °F (1:55 am)
Dewpoint73 °F75.2 °F (1:55 am)68 °F (10:00 pm)
Humidity73 %84 % (1:55 am)53 % (10:00 pm)
Barometer29.77 in29.83 in (10:00 am)29.71 in (3:50 pm)
Wind Speed11.3 mph17.3 mph (12:50 pm)
Wind Gust25.3 mph (12:50 pm)
Weather ElementAverage
Visibility14.6 mi
Wind DirectionENE (70.4 °)

Weather ElementTotal
Precipitation---
Cooling Degree Days18.3 (Base 65)
Growing Degree Days33.3 (Base 50)
Averaged from 26 records on February 13, 2013
WEATHER CONDITIONS BREAKOUT
WIND DIRECTION BREAKOUT
WEATHER BY HOUR - FEBRUARY 13, 2013
[ °C ]   °F
Local TimeTemperatureDewpointHumidityBarometerVisibilityWind DirectionWind SpeedGust SpeedPrecipitationEventsConditions
1:55 AM80.6 °F75.2 °F84 %29.76 in15.0 miNE (50°)9.2 mph13.8 mphMostly Cloudy
2:53 AM80.6 °F73.4 °F79 %29.76 in15.0 miENE (70°)10.4 mphMostly Cloudy
3:59 AM80.6 °F73.4 °F79 %29.74 in14.0 miENE (70°)9.2 mphMostly Cloudy
4:00 AM81.0 °F73.0 °F70 %29.78 in14.0 miEast (80°)10.4 mphPartly Cloudy
4:52 AM80.6 °F73.4 °F79 %29.74 in14.0 miENE (70°)9.2 mphMostly Cloudy
5:52 AM80.6 °F73.4 °F79 %29.75 in14.0 miENE (70°)9.2 mphMostly Cloudy
6:59 AM80.6 °F75.2 °F84 %29.77 in14.0 miEast (80°)9.2 mphOvercast
7:50 AM80.6 °F73.4 °F79 %29.78 in14.0 miENE (70°)9.2 mph13.8 mphOvercast
8:51 AM82.4 °F71.6 °F70 %29.80 in15.0 miENE (70°)11.5 mph20.7 mphOvercast
9:50 AM82.4 °F71.6 °F70 %29.81 in15.0 miEast (80°)11.5 mph20.7 mphMostly Cloudy
10:00 AM84.0 °F71.0 °F57 %29.83 in15.0 miENE (70°)10.4 mphOvercast
10:57 AM84.2 °F73.4 °F70 %29.81 in15.0 miEast (80°)15.0 mph23.0 mphMostly Cloudy
11:50 AM84.2 °F73.4 °F70 %29.80 in15.0 miENE (60°)13.8 mph23.0 mphMostly Cloudy
12:50 PM86.0 °F73.4 °F66 %29.78 in15.0 miENE (70°)17.3 mph25.3 mphMostly Cloudy
1:50 PM84.2 °F75.2 °F74 %29.76 in15.0 miENE (60°)12.7 mph25.3 mphOvercast
2:51 PM84.2 °F75.2 °F74 %29.73 in15.0 miNE (50°)16.1 mph19.6 mphOvercast
3:50 PM84.2 °F73.4 °F70 %29.71 in15.0 miENE (60°)9.2 mph17.3 mphOvercast
4:00 PM85.0 °F72.0 °F58 %29.73 in15.0 miEast (90°)15.0 mphOvercast
5:59 PM82.4 °F75.2 °F79 %29.72 in15.0 miENE (60°)13.8 mph20.7 mphMostly Cloudy
6:57 PM82.4 °F75.2 °F79 %29.74 in15.0 miENE (70°)10.4 mph19.6 mphMostly Cloudy
7:56 PM80.6 °F73.4 °F79 %29.76 in14.0 miEast (80°)10.4 mph17.3 mphMostly Cloudy
8:59 PM80.6 °F73.4 °F79 %29.78 in14.0 miEast (80°)9.2 mphMostly Cloudy
9:59 PM80.6 °F71.6 °F74 %29.79 in14.0 miENE (70°)9.2 mphMostly Cloudy
10:00 PM82.0 °F68.0 °F53 %29.81 in15.0 miEast (90°)12.7 mphScattered Clouds
10:54 PM80.6 °F71.6 °F74 %29.79 in14.0 miENE (60°)9.2 mph18.4 mphMostly Cloudy
11:57 PM80.6 °F69.8 °F70 %29.78 in14.0 miENE (70°)9.2 mph15.0 mphMostly Cloudy
Hourly data recorded from PTRO, located miles away from Kosha, Palau







STORIES FROM OUR PARTNERS